Location: Heisler
(52.6701°N, 112.2239°W)
Time: 16:05:19
(UTC+00:00)

N. Korean satellite - Pass Details

Date: 06 December 2021
Orbit: 446 x 492 km, 97.3° (Epoch: 16 January)

Event Time Altitude Azimuth Distance (km) Brightness Sun altitude
Rises 23:48:35 0° 169° (S) 2,520 10.5 -5.0°
Reaches altitude 10° 23:50:39 10° 171° (S) 1,638 9.6 -5.3°
Maximum altitude 23:54:10 74° 256° (WSW) 494 6.8 -5.8°
Drops below altitude 10° 23:57:39 10° 343° (NNW) 1,624 9.1 -6.2°
Sets 23:59:42 0° 346° (NNW) 2,497 10.0 -6.5°
